Regional Weather Roundup
Issued by NWS

Home | Current Version | Previous Version | Graphics & Text | Print | Product List | Glossary On
Versions: 1 2 3 4 5 6 7 8 9 10 11 12 13 14 15 16 17 18 19 20 21 22 23 24 25 26 27 28 29 30 31 32 33 34 35 36 37 38 39 40 41 42 43 44 45 46 47 48 49 50
771
ASUS45 KBOU 050007
RWRCO

WEATHER ROUNDUP FOR COLORADO
NATIONAL WEATHER SERVICE DENVER/BOULDER CO
500 PM MST THU FEB 04 2016

NOTE: "FAIR" INDICATES FEW OR NO CLOUDS BELOW 12000 FEET WITH NO
SIGNIFICANT WEATHER AND/OR OBSTRUCTIONS TO VISIBILITY.

COZ001>005-013-030-031-050100-
...NORTHWEST COLORADO...

CITY           SKY/WX    TMP DP  RH WIND       PRES   REMARKS
CRAIG          LGT SNOW  17  12  80 NE5       30.31F WCI  10
HAYDEN         CLOUDY    12   7  79 NE5       30.29F WCI   4
MEEKER         CLOUDY    19  15  84 SE3       30.30F
MOUNT WERNER   NOT AVBL
STEAMBOAT SPGS CLOUDY    11   7  82 CALM      30.28F
WALDEN         CLOUDY    14   9  79 S9G17     30.18S WCI   2
$$

COZ006>008-011-050100-
...WEST CENTRAL VALLEYS...

CITY           SKY/WX    TMP DP  RH WIND       PRES   REMARKS
GRAND JUNCTION FLURRIES  16  13  88 N3        30.42S
MONTROSE       CLOUDY    18   4  54 N3        30.38F
EAGLE          LGT SNOW  18   7  62 CALM      30.22F FOG
RIFLE          LGT SNOW  18  11  74 SE5       30.39S WCI  11
DELTA          CLOUDY    22  11  63 CALM      30.40S
NUCLA          CLOUDY    23   9  54 CALM      30.39F
$$

COZ017>023-064>068-050100-
...SOUTHWEST COLORADO...

CITY           SKY/WX    TMP DP  RH WIND       PRES   REMARKS
DURANGO        CLOUDY    19   6  57 CALM      30.28F
CORTEZ         CLOUDY    24  14  65 N8        30.34S WCI  15
PAGOSA SPRINGS CLOUDY    20   2  44 CALM      30.24S
TELLURIDE      CLOUDY    13   4  68 W8        30.23S WCI   1
WOLF CREEK PAS CLOUDY     5   1  85 SW6       30.13S WCI  -6
$$

COZ009-010-012-014-032>034-037-058>063-050100-
...CENTRAL COLORADO...

CITY           SKY/WX    TMP DP  RH WIND       PRES   REMARKS
ASPEN          CLOUDY    17   4  56 N5        30.22F WCI  10
BUENA VISTA    CLOUDY    21   4  48 S8        30.15S WCI  11
COPPER MTN     LGT SNOW  10   3  72 SW8       30.10  WCI  -1
BERTHOUD PASS  SNOW       0  -9  65 NW22G32   30.04F VSB 1/2 WCI -23
COTTONWOOD PAS CLOUDY    23   5  46 W18G28    30.10S WCI   9
GUNNISON       CLOUDY     0  -9  65 E3        30.33F
KREMMLING      CLOUDY     3  -4  72 CALM      30.28F HAZE
LEADVILLE      CLOUDY    13   4  67 N7        30.12F HAZE    WCI   3
MONARCH PASS   CLOUDY     3  -2  78 MISG      30.18S
SALIDA         CLOUDY    25   3  38 SW16      30.23S WCI  12
SUNLIGHT       LGT SNOW  12   9  85 CALM        N/A  VSB 3/4
WILKERSON PASS CLOUDY    12   3  67 W9G18     30.07S WCI   0
$$

COZ069>075-050100-
...SAN LUIS VALLEY/SANGRE DE CRISTO MOUNTAINS...

CITY           SKY/WX    TMP DP  RH WIND       PRES   REMARKS
ALAMOSA        CLOUDY    18   1  47 NW6       30.22S WCI  10
LA VETA PASS   CLOUDY    14  -4  44 MISG      30.07R
SAGUACHE       CLOUDY    18   0  45 CALM      30.22F
$$

COZ035-036-038>040-050100-
...NORTHERN COLORADO FRONT RANGE...

CITY           SKY/WX    TMP DP  RH WIND       PRES   REMARKS
DENVER INTL AP CLOUDY    21  10  62 NW6       30.11R WCI  13
DMNS CITY PARK   N/A     24   8  48 NE3       30.13R
AURORA         CLOUDY    21  13  73 NW2       30.12R
FRONT RANGE AP CLOUDY    19   9  63 NW5       30.12R WCI  13
ERIE MUNI ARPT CLOUDY    24  10  56 CALM      30.14R
BOULDER MUN AP CLOUDY    27   9  46 CALM      30.13R
CENTENNIAL     CLOUDY    24  14  65 N8        30.10R WCI  15
BROOMFIELD     CLOUDY    25   7  46 N7        30.12R WCI  17
FORT COLLINS   CLOUDY    25  10  54 N7        30.15R WCI  17
LONGMONT       CLOUDY    27  11  51 CALM      30.17R
$$

COZ041-046-047-076>085-087-088-050100-
...PIKES PEAK/PALMER DIVIDE AND SOUTHERN FOOTHILLS...

CITY           SKY/WX    TMP DP  RH WIND       PRES   REMARKS
COLO. SPRINGS  CLOUDY    24   8  50 NE6       30.13S WCI  17
A. F. ACADEMY  CLOUDY    24   2  40 SE8       30.10S WCI  15
SCHRIEVER AFB  FAIR      23   8  52 NE1       30.13S
ELLICOTT       NOT AVBL
FALCON         CLOUDY    21   6  53 CALM      30.12S
FORT CARSON    CLOUDY    25  11  55 NE1       30.12S
LIMON          CLOUDY    23   6  48 S8        30.15R WCI  14
MONUMENT HILL  CLOUDY    21   5  49 S13       30.09S WCI   9
TRINIDAD       CLOUDY    36   4  26 NE6       30.11R
$$

COZ042>045-048>051-090-091-050100-
...NORTHEAST COLORADO...

CITY           SKY/WX    TMP DP  RH WIND       PRES   REMARKS
GREELEY ARPT   CLOUDY    21  12  68 CALM      30.16S
AKRON          CLOUDY    27   7  42 S12       30.14S WCI  17
BURLINGTON     CLOUDY    24  12  60 S12       30.20F WCI  13
WRAY           CLOUDY    28  16  58 CALM      30.20S
STERLING       CLOUDY    23  12  63 CALM      30.17S
HOLYOKE        CLOUDY    27  16  63 W6        30.19S WCI  20
FORT MORGAN    CLOUDY    25  10  52 NE3       30.16R
$$

COZ086-089-092>099-050100-
...SOUTHEAST COLORADO...

CITY           SKY/WX    TMP DP  RH WIND       PRES   REMARKS
PUEBLO         CLOUDY    31  15  52 NE7       30.15R WCI  24
LA JUNTA       CLOUDY    26  18  71 E6        30.18S WCI  19
LAMAR          CLOUDY    31  18  58 E3        30.19F
SPRINGFIELD      N/A     31  12  45 E8        30.18F WCI  23
$$




USA.gov is the U.S. government's official web portal to all federal, state and local government web resources and services.